Regional Weather Roundup
Issued by NWS Sterling, VA

Home | Current Version | Previous Version | Text Only | Print | Product List | Glossary Off
Versions: 1 2 3 4 5 6 7 8 9 10 11 12 13 14 15 16 17 18 19 20 21 22 23 24 25 26 27 28 29 30 31 32 33 34 35 36 37 38 39 40 41 42 43 44 45 46 47 48 49 50

221
ASUS41 KLWX 261310
RWRLWX

REGIONAL WEATHER ROUNDUP
NATIONAL WEATHER SERVICE BALTIMORE MD/WASHINGTON DC
900 AM EDT THU MAY 26 2016

Note: "FAIR" indicates few or no clouds below 12,000 feet
with no significant weather and/or obstructions to visibility.
 TC=TEMPERATURE CELSIUS

 * =Non NWS site. Station does not report precipitation (e.g. rain,
    snow, etc.), thunder, or fog.

DCZ001-MDZ009-015-VAZ040>042-051-053>054-261400-
WASHINGTON METRO

CITY           SKY/WX    TMP DP  RH WIND       PRES   REMARKS
WASHINGTON NAT CLOUDY    69  61  75 S8        30.13F
DULLES         PTSUNNY   71  60  68 SW6       30.13S
ANDREWS AFB    SUNNY     74  60  61 S6        30.12F
FT BELVOIR     FAIR      71  61  71 VRB1      30.13F
QUANTICO       PTSUNNY   68  61  78 S7        30.14F
COLLEGE PARK*  FAIR      72  57  60 CALM      30.12F
LEESBURG*      FAIR      70  64  83 W3        30.14S
MANASSAS*      SUNNY     64  63  94 CALM      30.13F

$$

MDZ006>007-011-014-261400-
BALTIMORE METRO

CITY           SKY/WX    TMP DP  RH WIND       PRES   REMARKS
BWI AIRPORT    CLOUDY    74  59  59 CALM      30.13S
MD SCIENCE CTR   N/A     74  59  59 MISG      30.13F
MARTIN STATE   MOSUNNY   72  66  83 CALM      30.15S
ANNAPOLIS      SUNNY     68  65  90 SE8       30.13F
FORT MEADE*    CLOUDY    70  61  73 CALM      30.15F

$$

MDZ012-015-019>023-261400-
MARYLAND EASTERN SHORE

CITY           SKY/WX    TMP DP  RH WIND       PRES   REMARKS
OCEAN CITY     MOSUNNY   76  64  66 S3        30.16S
SALISBURY      SUNNY     76  63  64 SW5       30.15S
BAY BRIDGE AP* SUNNY     73  63  68 SE5       30.14S
CAMBRIDGE*     MOSUNNY   73  63  68 S5        30.14S
EASTON*        MOSUNNY   77  66  69 SW5       30.17S

$$

MDZ017>025-261400-
SOUTHERN MARYLAND

CITY           SKY/WX    TMP DP  RH WIND       PRES   REMARKS
PATUXENT RIVER CLOUDY    76  60  57 SW9       30.13F
ST INIGOES     MOSUNNY   72  61  68 S5        30.14S
LEONARDTOWN*   MOSUNNY   73  59  60 S7        30.15F

$$

MDZ003>005-261400-
NORTH CENTRAL MARYLAND

CITY           SKY/WX    TMP DP  RH WIND       PRES   REMARKS
FREDERICK*     SUNNY     70  64  83 CALM      30.15F
HAGERSTOWN APT MOSUNNY   68  58  70 W6        30.14S
WESTMINSTER*   MOSUNNY   75  72  88 CALM      30.14S

$$

MDZ501>502-261400-
WESTERN MARYLAND

CITY           SKY/WX    TMP DP  RH WIND       PRES   REMARKS
OAKLAND*       PTSUNNY   63  54  72 S5        30.23R
CUMBERLAND*    PTSUNNY   64  59  82 CALM      30.19S

$$

VAZ025>031-261400-
SHENANDOAH VALLEY

CITY           SKY/WX    TMP DP  RH WIND       PRES   REMARKS
WINCHESTER*    FAIR      72  59  64 CALM      30.13F
FRONT ROYAL*   FAIR      70  59  68 S5        30.13S
LURAY*         FAIR      64  63  94 CALM      30.16S
NEW MARKET*    PTSUNNY   68  60  77 CALM      30.15F
STAUNTON*      PTSUNNY   67  60  76 CALM      30.20S
WAYNESBORO*    PTSUNNY   69  60  74 CALM      30.19S

$$

WVZ021-048>050-054>055-261400-
EASTERN WEST VIRGINIA PANHANDLE

CITY           SKY/WX    TMP DP  RH WIND       PRES   REMARKS
MARTINSBURG    FAIR      68  59  73 CALM      30.13S
PETERSBURG*    PTSUNNY   63  59  88 CALM      30.18S

$$

VAZ036>039-050-261400-
CENTRAL FOOTHILLS

CITY           SKY/WX    TMP DP  RH WIND       PRES   REMARKS
CHARLOTTESVILL FAIR      72  61  68 SW3       30.14S
CULPEPER*      FAIR      69  63  79 CALM      30.14F
ORANGE*        FAIR      73  63  68 SW3       30.15S
GORDONSVILLE*  FAIR      72  62  72 SW5       30.13F
WARRENTON*     FAIR      72  57  59 CALM      30.13F

$$

VAZ055>057-261400-
NORTH AND CENTRAL PIEDMONT

CITY           SKY/WX    TMP DP  RH WIND       PRES   REMARKS
FREDERICKSBRG* NOT AVBL
STAFFORD*      FAIR      70  60  69 CALM      30.17F

$$

NCZ024-NYZ072-PAZ021-071-VAZ022-071-261400-
OTHER REGIONAL OBSERVATIONS

CITY           SKY/WX    TMP DP  RH WIND       PRES   REMARKS
NEW YORK CITY  SUNNY     76  50  40 W5        30.14S
PHILADELPHIA   PTSUNNY   72  58  61 SW6       30.14S
PITTSBURGH     CLOUDY    70  58  65 S5        30.11S
ROANOKE        CLOUDY    65  62  90 W6        30.22S
RICHMOND       PTSUNNY   72  63  73 S6        30.15S
RALEIGH        MOSUNNY   74  63  68 SW8       30.20S

$$

ANZ530>537-261400-
MARINE OBSERVATIONS

STATION/POSITION TIME  TEMP    WIND        PRES
                       AIR SEA DIR/SP/G
                 (UTC) (F)     (DEG/KT/KT) (MB)
THOMAS PT LIGHT  1300   67 63  170/  6/  6 1021.6F
BALT KEY BRIDGE  1200   66     130/  3/  4 1020.3R
COVE POINT       1200   73     250/  6/  9 1021.1R
LEWISETTA        1200   70 69  240/  7/  8 1020.6R
SOLOMONS ISLAND  1200   70 64  200/  6/  7   N/A
PINEY POINT      1200          150/  2/  3   N/A

$$





USA.gov is the U.S. government's official web portal to all federal, state and local government web resources and services.